Regional Weather Roundup
Issued by NWS

Home | Current Version | Previous Version | Text Only | Print | Product List | Glossary On
Versions: 1 2 3 4 5 6 7 8 9 10 11 12 13 14 15 16 17 18 19 20 21 22 23 24 25 26 27 28 29 30 31 32 33 34 35 36 37 38 39 40 41 42 43 44 45 46 47 48 49 50
000
ASUS43 KLMK 241910
RWRKY
KENTUCKY REGIONAL WEATHER ROUNDUP
NATIONAL WEATHER SERVICE LOUISVILLE KY
300 PM EDT SAT JUN 24 2017

NOTE "FAIR" INDICATES FEW OR NO CLOUDS BELOW 12,000 FEET
WITH NO SIGNIFICANT WEATHER AND/OR OBSTRUCTIONS TO VISIBILITY.

KYZ001>023-026-027-061>063-070>075-242000-
WESTERN AND SOUTH CENTRAL KENTUCKY

CITY           SKY/WX    TMP DP  RH WIND       PRES   REMARKS
PADUCAH        MOSUNNY   78  55  44 N12       30.09S
HENDERSON      MOSUNNY   79  58  48 W16       30.08S
OWENSBORO      PTSUNNY   78  58  49 NW16G23   30.07S
HOPKINSVILLE   CLOUDY    78  59  52 W9        30.08S
BOWLING GREEN  CLOUDY    77  60  55 W8        30.07S
GLASGOW        CLOUDY    78  59  53 W7        30.07S
$$

KYZ024-025-028>034-038-045-046-053-242000-
NORTH CENTRAL KENTUCKY

CITY           SKY/WX    TMP DP  RH WIND       PRES   REMARKS
LOUISVILLE/SDF CLOUDY    79  58  48 NW12      30.03S
LOUISVILLE/LOU CLOUDY    81  58  45 NW12      30.03S
FORT KNOX      CLOUDY    77  59  52 W10       30.03S
$$

KYZ035>037-039>044-047>052-055>060-089>105-242000-
NORTHEAST KENTUCKY

CITY           SKY/WX    TMP DP  RH WIND       PRES   REMARKS
LEXINGTON      CLOUDY    78  56  46 VRB6G21   30.03F
COVINGTON      MOSUNNY   77  58  51 W17       30.01S
FRANKFORT      MOSUNNY   80  59  48 W9        30.02S
$$

KYZ054-064>069-076>088-106>120-242000-
SOUTHEAST KENTUCKY

CITY           SKY/WX    TMP DP  RH WIND       PRES   REMARKS
JACKSON        MOSUNNY   79  64  60 VRB3      30.04F
LONDON         MOSUNNY   80  58  46 NW9       30.04F
SOMERSET       CLOUDY    79  59  50 W12       30.05F
MIDDLESBORO    SUNNY     82  59  45 NW9       30.03F
MONTICELLO     PTCLDY    79  63  57 NW9       30.06F
$$




USA.gov is the U.S. government's official web portal to all federal, state and local government web resources and services.